RYR85XP EPKK-EIDW

Flight info

Callsign RYR85XP
Flight time N/A
Altitude 38000
Route OMFOL DCT DINOV DCT NAROX DCT GOBAX DCT PIROT DCT RAVLO Y70 OTBED L60 PENIL UL28 LELDO M145 BAGSO BAGSO3R
Aircraft B38M/M-SDE1FGHILORVWXY/HB1

Departure

Time 2026-05-07 15:27
Airport Kraków John Paul II International Airport (EPKK)

Arrival

Time N/A
Airport Dublin Airport (EIDW)
Time Latitude Longitude Altitude Speed Heading
2026-05-07 14:52 50.07356 19.80348 792 ft 0 kts 167°
2026-05-07 15:17 50.07365 19.80345 792 ft 4 kts 168°
2026-05-07 15:17 50.07391 19.80337 792 ft 4 kts 168°
2026-05-07 15:17 50.07418 19.80328 792 ft 4 kts 166°
2026-05-07 15:17 50.07436 19.80317 792 ft 2 kts 128°
2026-05-07 15:18 50.07439 19.80300 792 ft 2 kts 83°
2026-05-07 15:18 50.07438 19.80290 792 ft 0 kts 78°
2026-05-07 15:21 50.07439 19.80295 792 ft 1 kts 78°
2026-05-07 15:21 50.07442 19.80321 792 ft 3 kts 78°
2026-05-07 15:21 50.07454 19.80362 792 ft 5 kts 50°
2026-05-07 15:21 50.07486 19.80384 792 ft 6 kts 20°
2026-05-07 15:22 50.07531 19.80408 792 ft 8 kts 19°
2026-05-07 15:22 50.07588 19.80424 792 ft 9 kts 352°
2026-05-07 15:22 50.07655 19.80400 792 ft 11 kts 347°
2026-05-07 15:22 50.07733 19.80374 792 ft 12 kts 348°
2026-05-07 15:23 50.07812 19.80348 792 ft 11 kts 347°
2026-05-07 15:23 50.07841 19.80338 792 ft 0 kts 347°
2026-05-07 15:25 50.07842 19.80338 792 ft 0 kts 347°
2026-05-07 15:25 50.07850 19.80335 792 ft 2 kts 347°
2026-05-07 15:26 50.07873 19.80327 792 ft 4 kts 347°
2026-05-07 15:26 50.07910 19.80315 792 ft 7 kts 347°
2026-05-07 15:26 50.07964 19.80296 791 ft 9 kts 347°
2026-05-07 15:26 50.08016 19.80239 791 ft 10 kts 283°
2026-05-07 15:27 50.07997 19.80078 792 ft 37 kts 258°
2026-05-07 15:27 50.07886 19.79280 792 ft 111 kts 258°
2026-05-07 15:27 50.07675 19.77780 801 ft 169 kts 257°
2026-05-07 15:27 50.07420 19.75968 1453 ft 171 kts 258°
2026-05-07 15:28 50.07176 19.74164 2373 ft 171 kts 256°
2026-05-07 15:28 50.06865 19.72331 3149 ft 179 kts 255°
2026-05-07 15:28 50.06591 19.70423 3942 ft 183 kts 262°
2026-05-07 15:28 50.06652 19.68350 4499 ft 203 kts 282°
2026-05-07 15:29 50.07128 19.66138 4916 ft 230 kts 288°
2026-05-07 15:29 50.07685 19.63683 5587 ft 245 kts 287°
2026-05-07 15:29 50.08061 19.61992 6140 ft 254 kts 287°
2026-05-07 15:29 50.08849 19.58394 7219 ft 267 kts 287°
2026-05-07 15:30 50.09243 19.56574 7904 ft 269 kts 286°
2026-05-07 15:30 50.09844 19.53784 8799 ft 274 kts 286°
2026-05-07 15:30 50.10659 19.49975 10027 ft 279 kts 285°
2026-05-07 15:30 50.11072 19.48041 10477 ft 288 kts 285°
2026-05-07 15:31 50.11722 19.44980 10908 ft 307 kts 285°
2026-05-07 15:31 50.12407 19.41750 11461 ft 320 kts 285°
2026-05-07 15:31 50.13115 19.38418 12211 ft 326 kts 285°
2026-05-07 15:31 50.13832 19.35046 13018 ft 330 kts 285°
2026-05-07 15:32 50.14559 19.31619 13796 ft 334 kts 285°
2026-05-07 15:32 50.15295 19.28141 14472 ft 339 kts 285°
2026-05-07 15:32 50.16029 19.24668 15141 ft 343 kts 285°
2026-05-07 15:32 50.16779 19.21112 15803 ft 347 kts 285°
2026-05-07 15:33 50.17539 19.17505 16452 ft 351 kts 284°
2026-05-07 15:33 50.18305 19.13859 17109 ft 355 kts 284°
2026-05-07 15:33 50.19078 19.10179 17753 ft 359 kts 284°
2026-05-07 15:33 50.19857 19.06455 18357 ft 362 kts 284°
2026-05-07 15:34 50.20641 19.02709 18919 ft 365 kts 284°
2026-05-07 15:34 50.21373 18.99201 19423 ft 367 kts 283°
2026-05-07 15:34 50.22167 18.95393 19988 ft 369 kts 283°
2026-05-07 15:34 50.22961 18.91575 20520 ft 372 kts 283°
2026-05-07 15:35 50.23751 18.87767 21063 ft 374 kts 282°
2026-05-07 15:35 50.24556 18.83884 21597 ft 377 kts 282°
2026-05-07 15:35 50.25374 18.79925 22143 ft 380 kts 282°
2026-05-07 15:35 50.26178 18.76029 22666 ft 382 kts 281°
2026-05-07 15:36 50.26996 18.72059 23190 ft 385 kts 281°
2026-05-07 15:36 50.27818 18.68060 23674 ft 388 kts 281°
2026-05-07 15:36 50.28644 18.64028 24091 ft 391 kts 281°
2026-05-07 15:36 50.29476 18.59964 24521 ft 394 kts 281°
2026-05-07 15:37 50.30314 18.55862 24942 ft 397 kts 281°
2026-05-07 15:37 50.31155 18.51738 25362 ft 399 kts 281°
2026-05-07 15:37 50.32002 18.47577 25781 ft 402 kts 281°
2026-05-07 15:37 50.32845 18.43427 26193 ft 405 kts 281°
2026-05-07 15:38 50.33699 18.39210 26588 ft 407 kts 281°